CZ-6A DEB, 61351

Orbit data source: Space-Track

CZ-6A DEB, 61351 is space debris in LEO originally from a launch on Tue, 06 Aug 2024 UTC launched from the Taiyaun Space Center, China (TSC). Debris objects in space refer to the collection of defunct objects orbiting the Earth. Examples of debris include non-operational satellites, rocket bodies, and fragments generated from explosions, collisions, or faulty payload assembly.

Loading next visibility...
Identifier
61351, 2024-140VQ
Orbit
LEO
Country
Flag of CNCN / PRC
Related business
Manufacturer
SAST
Mission
Spacecraft
Bus & Motor
Unknown
Mass
Unknown
Launch date (UTC)
2024-08-06 (2 years ago)
Launch vehicle
Unknown
Launch site
Taiyaun Space Center, China (TSC)
Object type
Payload
Rocket body
Debris
Shape & HBR
Unknown shape, 0.1 m
Radar Cross Section
Small (<0.1 m²)

Expand to show TLE details & history
Last TLE update: 14 hours ago

TLE from 14 hours ago
0 CZ-6A DEB
1 61351U 24140VQ  26171.27307253  .00001809  00000-0  39166-3 0  9999
2 61351  89.0634 275.5887 0110120 285.1911  73.7142 14.54113881 95039
Epoch: 2026-06-20T06:33Z
TLE epoch observation values (Epoch: 2026-06-20T06:33:13.466Z)
Latitude
0.00001°
Longitude
-91.20747°
Altitude
694.242 km
Speed
7.52 km/s
True Right ascension
18h 22m 21s
True Declination
0° 00' 00"
Sunlit
Object was in full shadow at epoch
Visualization orbit readout
Latitude
Unknown
Longitude
Unknown
Altitude
Unknown
Speed
Unknown
Apparent Right ascension
Unknown
Apparent Declination
Unknown
Sunlit
N/A
Visualization observer readout
Local Sidereal Time
07:18:46
Azimuth
Unknown
Elevation
Unknown
Doppler factor
Unknown
Orbital elements
Apogee altitude
787.191 km
Perigee altitude
631.1 km
Semi-major axis
7,087.282 km
Eccentricity
0.01101
Inclination
89.0634°
RAAN
275.5887°
Arg. of periapsis
285.1911°
True anomaly
74.93005°
Mean anomaly
73.7142°
Eccentric anomaly
74.32167°
Mean motion
3.63767 °/min
Orbital period
98.96 mins
BSTAR
0.00039166
Loading maneuver chart data...
Computing Atmospheric mass density...
Loading historical data...
Loading historical data...
Loading historical data...
Loading historical data...
Loading historical data...
Loading historical data...
Loading historical data...

Documentation

Showing up to 5 results
|